Regional Weather Roundup
Issued by NWS

Home | Current Version | Previous Version | Graphics & Text | Print | Product List | Glossary On
Versions: 1 2 3 4 5 6 7 8 9 10 11 12 13 14 15 16 17 18 19 20 21 22 23 24 25 26 27 28 29 30 31 32 33 34 35 36 37 38 39 40 41 42 43 44 45 46 47 48 49 50
972
ASUS44 KLIX 011701
RWRLA
LOUISIANA WEATHER ROUNDUP
NATIONAL WEATHER SERVICE NEW ORLEANS LA
1200 PM CDT WED OCT 01 2014

NOTE: "FAIR" INDICATES FEW OR NO CLOUDS BELOW 12,000 FEET WITH NO
      SIGNIFICANT WEATHER AND/OR OBSTRUCTIONS TO VISIBILITY.
      SKY/WX - SKY CONDITION AND SIGNIFICANT WEATHER.
      TMP - AIR TEMPERATURE.    DP   - DEWPOINT TEMPERATURE.
      RH  - RELATIVE HUMIDITY.  PRES - PRESSURE.
      HX  - HEAT INDEX.         WCI  - WIND CHILL INDEX.

*  THESE STATIONS ARE NOT NWS OR FAA STATIONS AND ARE NOT UNDER
   NWS QUALITY CONTROL.

LAZ040-048-061>063-065-066-069-011800-
SOUTHEAST LOUISIANA

CITY           SKY/WX    TMP DP  RH WIND       PRES   REMARKS
N.O. AUDUBON     N/A     76  73  90 MISG        N/A
N.O. INTL ARPT LGT RAIN  77  73  87 SE10      29.94F
N.O. LAKEFRONT LGT RAIN  77  73  87 S10       29.96F
N.O. DOWNTOWN* CLOUDY    75  70  83 SE5       29.95F
SLIDELL        CLOUDY    84  71  65 SE7       29.95F
BATON ROUGE    LGT RAIN  79  75  87 E7        29.94F
BOOTHVILLE     LGT RAIN  79  76  90 E3        29.97R
BELLE CHASSE   LGT RAIN  76  71  85 NE3       29.94F FOG
BOGALUSA*        N/A     84  70  62 S10       29.98S
GALLIANO*      NOT AVBL
NEW ROADS*     CLOUDY    81  74  79 SE12G17   29.93F
GONZALES*      LGT RAIN  78  78 100 SE3       29.93F
HAMMOND*       NOT AVBL
HOUMA*         PTSUNNY  N/A N/A N/A SE7       29.93F
PORT FOURCHON* MOSUNNY   81  75  83 E10       29.97S

$$

LAZ041-044-053-054-011800-
SOUTHWEST LOUISIANA

CITY           SKY/WX    TMP DP  RH WIND       PRES   REMARKS
LAKE CHARLES   PTSUNNY   85  76  74 SE13      29.88F
LAFAYETTE      PTSUNNY   80  76  87 VRB6      29.91F
PATTERSON      PTSUNNY   77  75  94 E7        29.93F
SALT POINT       N/A     81  78  91 VRB3      29.91F
NEW IBERIA     PTSUNNY   81  78  91 SE9       29.91F
CHENAULT AIRPK PTSUNNY   81  75  83 E12G18    29.89F

$$

LAZ027-028-011800-
CENTRAL LOUISIANA

CITY           SKY/WX    TMP DP  RH WIND       PRES   REMARKS
FORT POLK      NOT AVBL
ALEXANDRIA INT PTSUNNY   83  72  69 SE10G18   29.89F
ALEXANDRIA     PTSUNNY   82  74  76 S9        29.92F

$$

LAZ001-002-011800-
NORTHWEST LOUISIANA

CITY           SKY/WX    TMP DP  RH WIND       PRES   REMARKS
SHREVEPORT     MOSUNNY   84  72  67 S8        29.88F
BARKSDALE AFB  PTSUNNY   86  70  58 S10       29.88F
DTN SHREVEPORT PTSUNNY   83  70  64 SE6       29.88F

$$

LAZ014-016-011800-
NORTHEAST LOUISIANA

CITY           SKY/WX    TMP DP  RH WIND       PRES   REMARKS
MONROE         PTSUNNY   82  72  71 S9        29.93S
TALLULAH       SUNNY     85  68  56 SE10G17   29.94F

$$




USA.gov is the U.S. government's official web portal to all federal, state and local government web resources and services.